Lincoln County, Oregon, United States
Lat: 44.65N, Lon: 123.85W
Wx Zone: ORZ004
Local Info
Past Weather Observations for Wednesday, September 17, 2014

NOTE: This archive is for the closest National Weather Service station to Lincoln County. Information may differ from the station used for current weather conditions.

Click here for Long-term Archive

Time Weather Temperature Dewpoint Humidity Pressure Winds Precip Visibility
23:55
Overcast
57°F / 14°C 55°F / 13°C 94% 29.8 in
(1009 mb)
E 4.6 mph
(E 7 kph)
0.01 in
(0.25 mm)
7SM
23:35
Overcast
Light Rain
57°F / 14°C 55°F / 13°C 94% 29.8 in
(1009 mb)
Calm 0.01 in
(0.25 mm)
7SM
23:15
Overcast
Light Rain
57°F / 14°C 55°F / 13°C 94% 29.8 in
(1009 mb)
Calm 0.01 in
(0.25 mm)
7SM
22:55
Overcast
57°F / 14°C 55°F / 13°C 94% 29.8 in
(1009 mb)
Calm - 7SM
22:35
Overcast
55°F / 13°C 55°F / 13°C 100% 29.8 in
(1009 mb)
ESE 3.5 mph
(ESE 6 kph)
- 7SM
22:15
Overcast
Fog And Mist
55°F / 13°C 55°F / 13°C 100% 29.8 in
(1009 mb)
Calm - 5SM
21:55
Overcast
55°F / 13°C 55°F / 13°C 100% 29.8 in
(1009 mb)
Calm - 7SM
21:35
Overcast
57°F / 14°C 55°F / 13°C 94% 29.8 in
(1009 mb)
Calm - 10SM
21:15
Overcast
57°F / 14°C 55°F / 13°C 94% 29.8 in
(1009 mb)
Calm - 7SM
20:55
Overcast
57°F / 14°C 55°F / 13°C 94% 29.8 in
(1009 mb)
Calm - 7SM
20:35
Overcast
57°F / 14°C 55°F / 13°C 94% 29.8 in
(1009 mb)
S 4.6 mph
(S 7 kph)
- 7SM
20:15
Overcast
57°F / 14°C 55°F / 13°C 94% 29.8 in
(1009 mb)
S 5.8 mph
(S 9 kph)
- 7SM
19:55
Overcast
Light Rain
57°F / 14°C 55°F / 13°C 94% 29.8 in
(1009 mb)
S 8.1 mph
(S 13 kph)
- 7SM
19:35
Mostly Cloudy
Light Rain
57°F / 14°C 55°F / 13°C 94% 29.8 in
(1009 mb)
SSE 8.1 mph
(SSE 13 kph)
- 4SM
19:15
Mostly Cloudy
Drizzle
57°F / 14°C 55°F / 13°C 94% 29.8 in
(1009 mb)
SW 8.1 mph
(SW 13 kph)
- 4SM
18:55
Mostly Cloudy
Light Rain
59°F / 15°C 55°F / 13°C 88% 29.8 in
(1009 mb)
SSW 9.2 mph
(SSW 15 kph)
- 5SM
18:35
Mostly Cloudy
59°F / 15°C 55°F / 13°C 88% 29.77 in
(1008 mb)
Calm - 7SM
18:15
Overcast
Fog And Mist
59°F / 15°C 55°F / 13°C 88% 29.77 in
(1008 mb)
E 5.8 mph
(E 9 kph)
- 5SM
17:55
Mostly Cloudy
Light Rain
59°F / 15°C 55°F / 13°C 88% 29.77 in
(1008 mb)
Calm - 5SM
17:35
Partly Cloudy
Light Rain
59°F / 15°C 55°F / 13°C 88% 29.77 in
(1008 mb)
Calm - 5SM
17:15
Clear
Light Rain
59°F / 15°C 55°F / 13°C 88% 29.77 in
(1008 mb)
SE 3.5 mph
(SE 6 kph)
- 5SM
16:55
Clear
Drizzle
59°F / 15°C 55°F / 13°C 88% 29.77 in
(1008 mb)
S 5.8 mph
(S 9 kph)
- 4SM
16:35
Rain
59°F / 15°C 55°F / 13°C 88% 29.8 in
(1009 mb)
SW 5.8 mph
(SW 9 kph)
- 3SM
16:15
Light Rain
59°F / 15°C 55°F / 13°C 88% 29.77 in
(1008 mb)
W 4.6 mph
(W 7 kph)
- 2 1/2SM
15:55
Clear
Light Rain
61°F / 16°C 57°F / 14°C 88% 29.83 in
(1010 mb)
S 4.6 mph
(S 7 kph)
- 10SM
15:35
Clear
61°F / 16°C 57°F / 14°C 88% 29.8 in
(1009 mb)
S 6.9 mph
(S 11 kph)
- 10SM
15:15
Clear
61°F / 16°C 57°F / 14°C 88% N/A Calm - 7SM
14:55
Clear
Light Rain
61°F / 16°C 57°F / 14°C 88% 29.8 in
(1009 mb)
SW 3.5 mph
(SW 6 kph)
- 4SM
14:35
Partly Cloudy
Fog And Mist
61°F / 16°C 57°F / 14°C 88% 29.83 in
(1010 mb)
SSE 9.2 mph
(SSE 15 kph)
- 4SM
14:15
Light Rain
61°F / 16°C 57°F / 14°C 88% 29.83 in
(1010 mb)
SW 8.1 mph
(SW 13 kph)
- 2 1/2SM
13:55
Clear
Hazy
63°F / 17°C 55°F / 13°C 77% 29.8 in
(1009 mb)
SSE 6.9 mph
(SSE 11 kph)
- 5SM
13:35
Clear
61°F / 16°C 55°F / 13°C 83% 29.8 in
(1009 mb)
Calm - 7SM
13:15
Clear
Light Rain
61°F / 16°C 55°F / 13°C 83% 29.8 in
(1009 mb)
Calm - 4SM
12:55
Clear
Fog And Mist
61°F / 16°C 55°F / 13°C 83% 29.8 in
(1009 mb)
SSW 4.6 mph
(SSW 7 kph)
- 4SM
12:35
Clear
Fog And Mist
61°F / 16°C 55°F / 13°C 83% 29.8 in
(1009 mb)
SW 6.9 mph
(SW 11 kph)
- 4SM
12:15
Clear
Fog And Mist
59°F / 15°C 55°F / 13°C 88% 29.8 in
(1009 mb)
SW 3.5 mph
(SW 6 kph)
- 4SM
11:55
Clear
Fog And Mist
61°F / 16°C 55°F / 13°C 83% 29.8 in
(1009 mb)
SW 4.6 mph
(SW 7 kph)
- 4SM
11:35
Clear
Hazy
63°F / 17°C 55°F / 13°C 77% 29.77 in
(1008 mb)
WNW 4.6 mph
(WNW 7 kph)
- 4SM
11:15
Clear
63°F / 17°C 55°F / 13°C 77% 29.77 in
(1008 mb)
Calm - 7SM
10:55
Clear
Hazy
63°F / 17°C 55°F / 13°C 77% 29.77 in
(1008 mb)
Calm - 5SM
10:35
Clear
Hazy
61°F / 16°C 55°F / 13°C 83% 29.77 in
(1008 mb)
Calm - 5SM
10:15
Clear
Hazy
63°F / 17°C 55°F / 13°C 77% 29.77 in
(1008 mb)
SSW 4.6 mph
(SSW 7 kph)
- 5SM
08:35
Clear
61°F / 16°C 55°F / 13°C 83% 29.74 in
(1007 mb)
E 5.8 mph
(E 9 kph)
- 10SM
08:15
Clear
61°F / 16°C 55°F / 13°C 83% 29.74 in
(1007 mb)
E 4.6 mph
(E 7 kph)
- 10SM
07:55
Clear
59°F / 15°C 55°F / 13°C 88% 29.77 in
(1008 mb)
E 3.5 mph
(E 6 kph)
- 10SM
07:35
Clear
61°F / 16°C 55°F / 13°C 83% 29.77 in
(1008 mb)
Calm - 10SM
07:15
Clear
59°F / 15°C 55°F / 13°C 88% 29.77 in
(1008 mb)
Calm - 10SM
06:55
Clear
57°F / 14°C 55°F / 13°C 94% 29.77 in
(1008 mb)
E 3.5 mph
(E 6 kph)
- 7SM
06:35
Clear
55°F / 13°C 54°F / 12°C 94% 29.77 in
(1008 mb)
Calm - 7SM
06:15
Clear
55°F / 13°C 54°F / 12°C 94% 29.77 in
(1008 mb)
NE 3.5 mph
(NE 6 kph)
- 10SM
05:55
Clear
55°F / 13°C 54°F / 12°C 94% 29.77 in
(1008 mb)
ENE 3.5 mph
(ENE 6 kph)
- 10SM
05:35
Clear
55°F / 13°C 54°F / 12°C 94% 29.77 in
(1008 mb)
Calm - 10SM
05:15
Clear
55°F / 13°C 54°F / 12°C 94% 29.77 in
(1008 mb)
E 4.6 mph
(E 7 kph)
- 10SM
04:35
Clear
55°F / 13°C 54°F / 12°C 94% 29.77 in
(1008 mb)
ENE 3.5 mph
(ENE 6 kph)
- 10SM
04:15
Clear
55°F / 13°C 55°F / 13°C 100% 29.8 in
(1009 mb)
Calm - 10SM
03:55
Clear
55°F / 13°C 54°F / 12°C 94% 29.8 in
(1009 mb)
Calm - 10SM
03:35
Clear
55°F / 13°C 54°F / 12°C 94% N/A NE 3.5 mph
(NE 6 kph)
- 7SM
03:15
Clear
57°F / 14°C 55°F / 13°C 94% 29.8 in
(1009 mb)
Calm - 10SM
02:55
Clear
Drizzle
57°F / 14°C 55°F / 13°C 94% 29.8 in
(1009 mb)
NE 4.6 mph
(NE 7 kph)
- 10SM
02:35
Clear
Light Rain
57°F / 14°C 55°F / 13°C 94% 29.83 in
(1010 mb)
Calm - 10SM
02:15
Clear
59°F / 15°C 55°F / 13°C 88% 29.8 in
(1009 mb)
Calm - 10SM
01:55
Clear
59°F / 15°C 55°F / 13°C 88% 29.83 in
(1010 mb)
E 4.6 mph
(E 7 kph)
- 10SM
01:35
Clear
59°F / 15°C 55°F / 13°C 88% 29.83 in
(1010 mb)
E 5.8 mph
(E 9 kph)
- 10SM
01:15
Clear
57°F / 14°C 55°F / 13°C 94% 29.83 in
(1010 mb)
Calm - 10SM
00:55
Clear
57°F / 14°C 55°F / 13°C 94% 29.83 in
(1010 mb)
E 4.6 mph
(E 7 kph)
- 10SM
00:35
Clear
57°F / 14°C 55°F / 13°C 94% 29.86 in
(1011 mb)
E 3.5 mph
(E 6 kph)
- 10SM
00:15
Clear
57°F / 14°C 55°F / 13°C 94% 29.86 in
(1011 mb)
E 4.6 mph
(E 7 kph)
- 10SM
Time Weather Temperature Dewpoint Humidity Pressure Winds Precip Visibility


Weather for websites

WeatherForYou.com, LLC is not responsible for any damages or problems caused by this service. Current weather conditions are obtained from the closest station including government and personal stations which may have varying degrees of accuracy. Weather forecasts are derived from the NOAA NDFD. Like all things, this site belongs to Jesus Christ... He just trusts me to maintain it. If you have any questions or comments email webmaster@weatherforyou.com

Copyright © 2014, WeatherForYou.com LLC. All rights reserved.